Location: Lafig�re
(44.4503°N, 4.0357°E)
Time: 03:14:15
(UTC+00:00)

Transit 4A - Pass Details

Date: 23 January 2021
Orbit: 866 x 978 km, 66.8° (Epoch: 02 March)

Event Time Altitude Azimuth Distance (km) Brightness Sun altitude
Rises 17:30:04 0° 167° (SSE) 3,654 11.1 -8.9°
Reaches altitude 10° 17:33:11 10° 153° (SSE) 2,718 10.3 -9.5°
Maximum altitude 17:37:52 22° 105° (ESE) 1,992 9.2 -10.3°
Enters shadow 17:41:37 13° 64° (ENE) 2,485 9.5 -10.9°
Drops below altitude 10° 17:42:34 10° 58° (ENE) 2,727 - -11.1°
Sets 17:45:42 0° 44° (NE) 3,670 - -11.6°
